Location: Bamazo
(6.7448°N, 10.8189°W)
Time: 11:07:32
(UTC+00:00)

Daily predictions for brighter satellites

Satellite Brightness Start Highest point End
(mag) Time Altitude Azimuth Time Altitude Azimuth Time Altitude Azimuth
DELTA-4 R/B 4.2 18:35:38 10° WNW 18:39:47 65° NNE 19:00:25 10° E
ATLAS 3B CENTAUR R/B 4.4 18:45:02 10° NW 18:54:02 59° NNE 19:13:59 10° ESE
SMAP 4.3 18:53:58 10° S 18:58:26 48° WSW 19:02:54 10° NNW
Meteor 1-23 Rocket 4.2 18:59:05 10° N 19:04:33 63° E 19:10:02 10° SSE
ATLAS 2AS CENTAUR R/B 4.1 19:02:49 10° SSE 19:07:51 19° ESE 19:13:03 10° ENE
Cosmos 1066 Rocket 4.1 19:02:49 10° N 19:08:12 79° E 19:13:44 10° S
Delta 198 4.3 19:02:55 10° WNW 19:09:08 66° NNE 19:14:21 10° ESE
H-2A R/B 3.7 19:09:25 10° E 19:10:41 11° ENE 19:11:56 10° ENE
Shenzhou-11 Module 2.0 19:11:12 10° WSW 19:13:17 48° NW 19:15:22 10° NNE
MOS 1 Rocket 3.4 19:11:17 10° NNE 19:15:17 40° E 19:19:19 10° S
Sich 1 Rocket 4.0 19:11:35 10° SSE 19:15:41 38° E 19:19:49 10° NNE
ATLAS 2AS CENTAUR RB 2.5 19:14:14 10° SW 19:15:48 14° S 19:17:00 10° SE
Iridium 4 Rocket 3.1 19:12:06 10° S 19:16:27 74° E 19:21:10 10° N
Cosmos 1174 3.6 19:13:49 10° SSW 19:17:19 77° ESE 19:21:41 10° NNE
BLOCK DM-SL R/B 3.8 19:14:16 10° WSW 19:19:10 59° S 19:42:05 17° E
BLOCK DM-SL R/B 3.8 19:14:16 10° WSW 19:19:10 59° S 19:42:06 17° E
BLOCK DM-SL R/B 3.8 19:14:17 10° WSW 19:19:10 59° S 19:42:06 17° E
BLOCK DM-SL R/B 3.8 19:14:16 10° WSW 19:19:10 59° S 19:42:04 17° E
BLOCK DM-SL R/B 3.8 19:14:17 10° WSW 19:19:11 59° SSE 19:42:06 17° E
BLOCK DM-SL R/B 3.8 19:14:16 10° WSW 19:19:11 59° SSE 19:42:06 17° E
SL-24 R/B 4.0 19:15:45 10° SSE 19:20:07 66° ENE 19:24:21 10° N
Cosmos 1844 4.4 19:16:52 10° SSE 19:21:52 30° ESE 19:26:48 10° NE
Cosmos 1674 Rocket 3.6 19:18:24 10° N 19:22:51 89° W 19:27:17 10° S
IRS-1C Rocket 4.1 19:18:02 10° SSE 19:23:18 89° WSW 19:28:34 10° NNW
Ariane H10+ 2.6 19:22:40 10° WSW 19:25:09 31° S 19:26:58 18° ESE
Milstar 3 Cent rocket 4.4 19:25:09 10° W 19:33:11 29° NNW 19:38:09 10° NNE
CZ-2C R/B 3.6 19:29:30 10° SE 19:33:51 32° ENE 19:38:23 10° NNE
Cosmos 1844 Rocket 2.7 19:28:28 10° S 19:33:52 54° ESE 19:39:16 10° NNE
ARIANE 5 R/B 2.9 19:18:03 10° W 19:35:38 75° S 19:37:49 25° E
Okean 2 Rocket 3.5 19:31:32 10° SSE 19:35:47 41° E 19:40:01 10° NNE
CZ-2C R/B 3.2 19:31:28 10° NE 19:36:33 36° E 19:41:38 10° SSE
Cosmos 1939 Rocket 3.5 19:33:16 10° S 19:37:14 59° W 19:41:15 10° NNW
Helios 1A Rocket 3.4 19:33:17 10° S 19:37:17 62° WSW 19:41:19 10° NNW
SL-16 R/B 2.2 19:31:51 10° NNW 19:37:30 86° WSW 19:43:09 10° SSE
Cosmos 1464 Rocket 4.0 19:32:46 10° SSE 19:38:43 53° E 19:44:36 10° NNE
Okean-O 2.5 19:34:45 10° SSE 19:39:11 87° ENE 19:43:36 10° N
Atlas Centaur 2 3.7 19:38:01 10° W 19:44:14 35° SW 19:49:16 10° SSE
Delta 7925 Rocket 3.5 19:40:39 10° WNW 19:45:32 74° NNE 19:48:33 28° ESE
CZ-2D R/B 3.7 19:41:48 10° S 19:45:37 62° WSW 19:49:26 10° NNW
Meteor 1-12 Rocket 4.3 19:40:19 10° S 19:46:18 71° E 19:52:12 10° NNE
Cosmos 1300 Rocket 3.4 19:44:31 10° S 19:48:49 62° E 19:53:07 10° NNE
NOAA 15 4.5 19:46:31 10° SSE 19:51:45 81° ENE 19:56:59 10° N
GPS 2-17 Rocket1 4.0 19:47:46 10° W 19:52:10 41° NNW 19:54:35 23° NE
Cosmos 2298 Rocket 4.1 19:47:23 10° SSW 19:52:43 80° WNW 19:58:01 10° N
CSL-04 Debris 4.2 19:48:50 10° SSE 19:54:07 55° ENE 19:59:22 10° N
YAOGAN 1 2.5 19:50:05 10° S 19:54:24 86° WSW 19:58:43 10° NNW
GPS 2-14 Rocket1 4.0 19:51:10 10° W 19:54:31 30° SSW 19:55:47 24° SSE
Cosmos 923 Rocket 3.8 19:51:28 10° N 19:56:39 80° ENE 20:01:50 10° SSE
Ariane H10 3.3 19:46:23 10° W 20:02:40 78° S 20:05:11 39° ESE
Cosmos 1932 4.5 19:56:59 10° N 20:03:05 54° ENE 20:05:12 37° ESE
CSL-04 Rocket 3.5 19:58:27 10° SSE 20:03:43 67° ENE 20:09:03 10° N
BLOCK-DM UPPERSTAGE 4.2 19:59:52 10° WSW 20:05:15 34° S 20:06:05 31° SSE
Centaur AC-119 3.3 20:05:35 10° W 20:09:45 28° NW 20:10:01 28° NNW
ASTRO E2 3.5 20:07:18 10° NW 20:10:20 39° N 20:10:20 39° N
ARIANE 44P R/B 4.0 20:10:26 10° WSW 20:13:13 30° S 20:13:30 30° SSE
Meteor 1-21 4.0 20:09:31 10° N 20:15:05 81° E 20:20:31 11° S
CZ-4 R/B 3.3 20:11:44 10° SSW 20:15:24 30° W 20:19:07 10° NW
Cosmos 2151 Rocket 3.6 20:12:35 10° S 20:16:59 78° W 20:21:24 10° N
Intelsat 5-3 Rocket 4.2 20:14:19 10° NW 20:19:35 58° NNE 20:22:39 42° E
ARIANE 3 DEB 4.3 20:15:50 10° WSW 20:19:52 46° S 20:20:55 42° SSE
Intelsat 5-1 Rocket 4.3 19:57:53 10° WSW 20:20:13 67° NNW 20:24:10 33° NE
Palapa 6 Rocket 3.5 20:19:40 10° WSW 20:22:29 48° W 20:22:29 48° W
Cosmos 1125 Rocket 4.3 20:28:30 10° SSW 20:33:35 49° WNW 20:38:40 10° N
Cosmos 2034 Rocket 4.4 20:29:13 10° SSW 20:35:29 63° W 20:41:46 10° N
NOSS 3-4 (A) 3.7 20:30:51 10° SW 20:36:44 60° WNW 20:39:16 33° N
NOSS 3-4 (C) 3.7 20:30:58 10° SW 20:36:51 61° WNW 20:39:12 35° N
NATO 3D Rocket 4.0 20:34:43 10° WSW 20:38:29 49° W 20:38:29 49° W
Ariane H10+ 4.2 20:34:03 10° WSW 20:42:02 27° SSW 20:42:10 27° S
H-2A R/B 3.1 20:49:28 38° WSW 20:49:46 39° WSW 20:54:19 10° NNW
ARGOS 4.3 20:53:38 36° NW 20:53:38 36° NW 20:56:53 10° NNW
ATLAS 2AS CENTAUR R/B 3.6 20:51:05 10° SW 20:58:23 53° WNW 21:04:43 16° N
ARIANE 5 R/B 4.4 20:54:58 10° W 21:18:19 46° SSW 21:18:19 46° SSW
